Location: La Pernelle
(49.6188°N, 1.2999°W)
Time: 08:37:24
(UTC+00:00)

Cosmos 1346 Rocket - Pass Details

Date: 12 June 2021
Orbit: 526 x 551 km, 81.2° (Epoch: 04 August)

Event Time Altitude Azimuth Distance (km) Brightness Sun altitude
Exits shadow 22:50:01 22° 125° (SE) 1,203 4.1 -15.3°
Maximum altitude 22:51:22 27° 92° (E) 1,054 4.1 -15.3°
Drops below altitude 10° 22:54:48 10° 33° (NNE) 1,825 6.0 -15.5°
Sets 22:57:11 0° 22° (NNE) 2,728 7.2 -15.6°
